STARLINK-2244 (48588 NORAD) Tracking and Keplerian Element Data

This shows tracking and keplerian element data for the satellite.

Feedback or suggestion? Click here.




ElementValue
Catalog48588
NameSTARLINK-2244
Epoch Orbit2301
Epoch Day287.86717236
Epoch Year2021
RAAN144.9353
Inclination53.0551
Eccentricity0.0001765
Argument of Perigee68.6068
Mean Anonmoly291.5109
Mean Motion15.06395621
Decay Rate-1.293E-05
L11 48588U 21041AM 21287.86717236 -.00001293 00000-0 -67948-4 0 9996
L22 48588 53.0551 144.9353 0001765 68.6068 291.5109 15.06395621 23017

Live tracking and technical data element details for STARLINK-2244 (NORAD 48588). STARLINK-2244 can be tracked NOW for your location showing map with azimuth and elevation plus other details from your city location.

Track the satellite on the map from your city or location and see movement details for azimuth, elevation, latitude, longitude, range, height, and movement on the map or in text.







IsCatalogInMostPopularTable: catalog: 48588, numindb: 42
Update: records affected: 1



GetName: 48588 STARLINK-2244

Hit Count: updated at: Tue, 19 Oct 2021 07:58:21 GMT